| time (UTC) | temp C | wind direction | speed KPH | gust KPH | rain 1hr cm | rain 24hr cm | rain mn cm | humidity % | barometer mb |
| 20260504100511 | 3 | 267 | 0.0 | 0.0 | 0.00 | 0.00 | 0.00 | 80 | 1016.1 |
| 20260504081904 | 6 | 266 | 0.0 | 0.0 | 0.00 | 0.00 | 0.00 | 68 | 1016.6 |
| 20260504081401 | 6 | 266 | 0.0 | 0.0 | 0.00 | 0.00 | 0.00 | 68 | 1016.5 |
| 20260504080856 | 6 | 266 | 0.0 | 0.0 | 0.00 | 0.00 | 0.00 | 68 | 1016.4 |
| 20260504080354 | 6 | 266 | 0.0 | 0.0 | 0.00 | 0.00 | 0.00 | 68 | 1016.3 |
| 20260504070321 | 7 | 263 | 0.0 | 1.6 | 0.00 | 0.00 | 0.00 | 66 | 1016.5 |
| 20260504060241 | 8 | 281 | 1.6 | 1.6 | 0.00 | 0.00 | 0.00 | 59 | 1016.3 |
| 20260504050709 | 8 | 246 | 1.6 | 4.8 | 0.00 | 0.00 | 0.00 | 56 | 1016.3 |
| 20260504050206 | 8 | 249 | 0.0 | 0.0 | 0.00 | 0.00 | 0.00 | 58 | 1016.4 |
| 20260504045703 | 8 | 261 | 0.0 | 0.0 | 0.00 | 0.00 | 0.00 | 57 | 1016.6 |
| 20260504045158 | 9 | 261 | 0.0 | 0.0 | 0.00 | 0.00 | 0.00 | 55 | 1016.4 |
| 20260504044656 | 9 | 252 | 0.0 | 0.0 | 0.00 | 0.00 | 0.00 | 54 | 1016.5 |
| 20260504044153 | 10 | 247 | 1.6 | 3.2 | 0.00 | 0.00 | 0.00 | 54 | 1016.4 |
| 20260504043650 | 9 | 249 | 1.6 | 1.6 | 0.00 | 0.00 | 0.00 | 54 | 1016.7 |
| 20260504043147 | 9 | 258 | 0.0 | 0.0 | 0.00 | 0.00 | 0.00 | 55 | 1016.5 |
| 20260504042644 | 10 | 258 | 0.0 | 1.6 | 0.00 | 0.00 | 0.00 | 54 | 1016.4 |
| 20260504042140 | 10 | 251 | 1.6 | 3.2 | 0.00 | 0.00 | 0.00 | 53 | 1016.3 |
| 20260504041636 | 10 | 224 | 3.2 | 4.8 | 0.00 | 0.00 | 0.00 | 52 | 1016.6 |
| 20260504041133 | 10 | 261 | 1.6 | 3.2 | 0.00 | 0.00 | 0.00 | 52 | 1016.5 |
| 20260504040630 | 10 | 250 | 3.2 | 4.8 | 0.00 | 0.00 | 0.00 | 52 | 1016.3 |
| 20260504040127 | 10 | 248 | 6.4 | 9.7 | 0.00 | 0.00 | 0.00 | 51 | 1016.4 |
| 20260504035624 | 10 | 260 | 6.4 | 9.7 | 0.00 | 0.00 | 0.00 | 50 | 1016.3 |
| 20260504035120 | 10 | 242 | 4.8 | 8.0 | 0.00 | 0.00 | 0.00 | 52 | 1016.2 |
| 20260504034618 | 10 | 250 | 6.4 | 8.0 | 0.00 | 0.00 | 0.00 | 51 | 1016.1 |
| 20260504034114 | 10 | 247 | 6.4 | 8.0 | 0.00 | 0.00 | 0.00 | 52 | 1016.2 |
| 20260504033613 | 10 | 241 | 4.8 | 8.0 | 0.00 | 0.00 | 0.00 | 53 | 1016.2 |
| 20260504033110 | 10 | 239 | 6.4 | 9.7 | 0.00 | 0.00 | 0.00 | 53 | 1016.2 |
| 20260504032606 | 10 | 253 | 4.8 | 8.0 | 0.00 | 0.00 | 0.00 | 52 | 1015.9 |
| 20260504032103 | 10 | 238 | 4.8 | 4.8 | 0.00 | 0.00 | 0.00 | 52 | 1016.1 |
| 20260504031601 | 10 | 246 | 6.4 | 8.0 | 0.00 | 0.00 | 0.00 | 51 | 1016.1 |
| 20260504031056 | 10 | 259 | 1.6 | 8.0 | 0.00 | 0.00 | 0.00 | 52 | 1015.9 |
| 20260504030554 | 10 | 250 | 4.8 | 8.0 | 0.00 | 0.00 | 0.00 | 53 | 1016.0 |
| 20260504030050 | 10 | 235 | 3.2 | 4.8 | 0.00 | 0.00 | 0.00 | 54 | 1015.9 |
| 20260504025547 | 10 | 240 | 1.6 | 3.2 | 0.00 | 0.00 | 0.00 | 52 | 1015.8 |
| 20260504025044 | 10 | 244 | 4.8 | 4.8 | 0.00 | 0.00 | 0.00 | 51 | 1016.0 |
| 20260504024541 | 10 | 252 | 3.2 | 4.8 | 0.00 | 0.00 | 0.00 | 50 | 1015.9 |
| 20260504024038 | 10 | 236 | 3.2 | 4.8 | 0.00 | 0.00 | 0.00 | 50 | 1016.1 |
| 20260504023534 | 10 | 250 | 3.2 | 3.2 | 0.00 | 0.00 | 0.00 | 50 | 1016.1 |
| 20260504023030 | 10 | 244 | 1.6 | 3.2 | 0.00 | 0.00 | 0.00 | 51 | 1016.0 |
| 20260504022526 | 10 | 238 | 1.6 | 1.6 | 0.00 | 0.00 | 0.00 | 51 | 1016.1 |
| 20260504022023 | 10 | 239 | 0.0 | 3.2 | 0.00 | 0.00 | 0.00 | 51 | 1016.0 |
| 20260504021521 | 10 | 241 | 0.0 | 1.6 | 0.00 | 0.00 | 0.00 | 53 | 1015.9 |
| 20260504021017 | 10 | 251 | 0.0 | 0.0 | 0.00 | 0.00 | 0.00 | 51 | 1016.0 |
| 20260504020514 | 10 | 251 | 0.0 | 1.6 | 0.00 | 0.00 | 0.00 | 50 | 1016.0 |
| 20260504020011 | 11 | 242 | 1.6 | 3.2 | 0.00 | 0.00 | 0.00 | 49 | 1016.1 |
| 20260504015507 | 11 | 241 | 1.6 | 3.2 | 0.00 | 0.00 | 0.00 | 49 | 1016.2 |
| 20260504015003 | 10 | 247 | 1.6 | 3.2 | 0.00 | 0.00 | 0.00 | 49 | 1016.1 |
| 20260504014459 | 10 | 248 | 0.0 | 3.2 | 0.00 | 0.00 | 0.00 | 51 | 1015.9 |
| 20260504013956 | 10 | 236 | 1.6 | 1.6 | 0.00 | 0.00 | 0.00 | 52 | 1016.0 |
| 20260504013455 | 10 | 247 | 0.0 | 0.0 | 0.00 | 0.00 | 0.00 | 52 | 1015.8 |
| 20260504012950 | 10 | 250 | 1.6 | 1.6 | 0.00 | 0.00 | 0.00 | 51 | 1016.0 |
| 20260504012449 | 10 | 242 | 0.0 | 0.0 | 0.00 | 0.00 | 0.00 | 52 | 1015.9 |
| 20260504011946 | 10 | 242 | 0.0 | 0.0 | 0.00 | 0.00 | 0.00 | 51 | 1015.7 |
| 20260504011442 | 10 | 242 | 0.0 | 0.0 | 0.00 | 0.00 | 0.00 | 49 | 1015.6 |
| 20260504010938 | 10 | 243 | 0.0 | 0.0 | 0.00 | 0.00 | 0.00 | 49 | 1015.5 |
| 20260504010434 | 11 | 246 | 0.0 | 0.0 | 0.00 | 0.00 | 0.00 | 49 | 1015.8 |
| 20260504005931 | 11 | 242 | 0.0 | 3.2 | 0.00 | 0.00 | 0.00 | 47 | 1015.8 |
| 20260504005427 | 11 | 252 | 0.0 | 0.0 | 0.00 | 0.00 | 0.00 | 46 | 1015.7 |
| 20260504004925 | 11 | 252 | 0.0 | 0.0 | 0.00 | 0.00 | 0.00 | 45 | 1015.8 |
| 20260504004423 | 12 | 252 | 0.0 | 0.0 | 0.00 | 0.00 | 0.00 | 44 | 1015.7 |
| 20260504003919 | 12 | 248 | 3.2 | 3.2 | 0.00 | 0.00 | 0.00 | 43 | 1015.5 |
| 20260504003416 | 12 | 264 | 3.2 | 3.2 | 0.00 | 0.00 | 0.00 | 43 | 1015.4 |
| 20260504002912 | 12 | 268 | 0.0 | 0.0 | 0.00 | 0.00 | 0.00 | 42 | 1015.6 |
| 20260504002409 | 12 | 263 | 0.0 | 0.0 | 0.00 | 0.00 | 0.00 | 43 | 1015.6 |
| 20260504001907 | 12 | 262 | 0.0 | 1.6 | 0.00 | 0.00 | 0.00 | 42 | 1015.4 |
| 20260504001405 | 13 | 269 | 0.0 | 1.6 | 0.00 | 0.00 | 0.00 | 41 | 1015.3 |
| 20260504000901 | 13 | 267 | 1.6 | 3.2 | 0.00 | 0.00 | 0.00 | 40 | 1015.4 |
| 20260504000358 | 13 | 280 | 4.8 | 9.7 | 0.00 | 0.00 | 0.00 | 40 | 1015.1 |
| 20260503235855 | 13 | 280 | 8.0 | 9.7 | 0.00 | 0.00 | 0.00 | 40 | 1015.1 |
| 20260503235353 | 13 | 303 | 9.7 | 11.3 | 0.00 | 0.00 | 0.00 | 39 | 1015.0 |
| 20260503234850 | 13 | 293 | 4.8 | 4.8 | 0.00 | 0.00 | 0.00 | 40 | 1015.0 |
| 20260503234348 | 14 | 294 | 4.8 | 12.9 | 0.00 | 0.00 | 0.00 | 38 | 1014.7 |
| 20260503233845 | 14 | 320 | 6.4 | 14.5 | 0.00 | 0.00 | 0.00 | 39 | 1014.8 |
| 20260503233342 | 14 | 260 | 6.4 | 14.5 | 0.00 | 0.00 | 0.00 | 39 | 1014.9 |
| 20260503232838 | 15 | 248 | 9.7 | 12.9 | 0.00 | 0.00 | 0.00 | 38 | 1014.8 |
| 20260503232335 | 15 | 275 | 4.8 | 9.7 | 0.00 | 0.00 | 0.00 | 39 | 1015.0 |
| 20260503231833 | 15 | 283 | 8.0 | 11.3 | 0.00 | 0.00 | 0.00 | 38 | 1015.0 |
| 20260503231330 | 15 | 300 | 6.4 | 11.3 | 0.00 | 0.00 | 0.00 | 37 | 1014.9 |
| 20260503230826 | 15 | 249 | 9.7 | 16.1 | 0.00 | 0.00 | 0.00 | 35 | 1014.8 |
| 20260503230323 | 15 | 282 | 8.0 | 14.5 | 0.00 | 0.00 | 0.00 | 37 | 1014.9 |
| 20260503225821 | 15 | 264 | 11.3 | 16.1 | 0.00 | 0.00 | 0.00 | 36 | 1014.7 |
| 20260503225316 | 15 | 295 | 14.5 | 20.9 | 0.00 | 0.00 | 0.00 | 35 | 1014.8 |
| 20260503224813 | 15 | 305 | 14.5 | 20.9 | 0.00 | 0.00 | 0.00 | 36 | 1014.8 |
| 20260503224310 | 15 | 285 | 12.9 | 16.1 | 0.00 | 0.00 | 0.00 | 36 | 1014.8 |
| 20260503223808 | 15 | 286 | 17.7 | 27.4 | 0.00 | 0.00 | 0.00 | 36 | 1014.9 |
| 20260503223305 | 15 | 332 | 8.0 | 17.7 | 0.00 | 0.00 | 0.00 | 37 | 1014.9 |
| 20260503222801 | 15 | 5 | 8.0 | 22.5 | 0.00 | 0.00 | 0.00 | 38 | 1014.8 |
| 20260503222300 | 15 | 283 | 11.3 | 24.1 | 0.00 | 0.00 | 0.00 | 36 | 1014.6 |
| 20260503221757 | 15 | 306 | 11.3 | 17.7 | 0.00 | 0.00 | 0.00 | 37 | 1014.6 |
| 20260503221255 | 15 | 284 | 12.9 | 22.5 | 0.00 | 0.00 | 0.00 | 35 | 1014.8 |
| 20260503220751 | 15 | 327 | 11.3 | 12.9 | 0.00 | 0.00 | 0.00 | 36 | 1014.8 |
| 20260503220248 | 15 | 319 | 12.9 | 27.4 | 0.00 | 0.00 | 0.00 | 36 | 1014.6 |
| 20260503215745 | 15 | 297 | 12.9 | 22.5 | 0.00 | 0.00 | 0.00 | 37 | 1015.1 |
| 20260503215242 | 15 | 293 | 16.1 | 20.9 | 0.00 | 0.00 | 0.00 | 35 | 1014.7 |
| 20260503214740 | 15 | 288 | 11.3 | 20.9 | 0.00 | 0.00 | 0.00 | 38 | 1014.7 |
| 20260503214237 | 15 | 291 | 11.3 | 22.5 | 0.00 | 0.00 | 0.00 | 37 | 1014.8 |
| 20260503213735 | 15 | 344 | 12.9 | 22.5 | 0.00 | 0.00 | 0.00 | 37 | 1015.0 |
| 20260503213232 | 15 | 291 | 14.5 | 16.1 | 0.00 | 0.00 | 0.00 | 36 | 1014.8 |
| 20260503212728 | 15 | 285 | 16.1 | 27.4 | 0.00 | 0.00 | 0.00 | 35 | 1014.7 |
| 20260503212226 | 16 | 292 | 16.1 | 24.1 | 0.00 | 0.00 | 0.00 | 38 | 1014.7 |
| 20260503211724 | 16 | 298 | 8.0 | 17.7 | 0.00 | 0.00 | 0.00 | 36 | 1014.4 |
| 20260503211220 | 15 | 215 | 12.9 | 16.1 | 0.00 | 0.00 | 0.00 | 37 | 1014.8 |
| 20260503210715 | 15 | 272 | 8.0 | 22.5 | 0.00 | 0.00 | 0.00 | 37 | 1014.8 |
| 20260503210212 | 15 | 283 | 4.8 | 16.1 | 0.00 | 0.00 | 0.00 | 37 | 1014.7 |
| 20260503205703 | 16 | 280 | 19.3 | 27.4 | 0.00 | 0.00 | 0.00 | 35 | 1014.8 |
| 20260503205159 | 15 | 281 | 17.7 | 25.7 | 0.00 | 0.00 | 0.00 | 37 | 1014.8 |
| 20260503204655 | 16 | 331 | 9.7 | 12.9 | 0.00 | 0.00 | 0.00 | 36 | 1014.7 |
| 20260503204153 | 15 | 304 | 11.3 | 24.1 | 0.00 | 0.00 | 0.00 | 40 | 1014.6 |
| 20260503203650 | 15 | 242 | 8.0 | 16.1 | 0.00 | 0.00 | 0.00 | 39 | 1014.6 |
| 20260503203148 | 15 | 320 | 16.1 | 29.0 | 0.00 | 0.00 | 0.00 | 38 | 1014.8 |
| 20260503202644 | 15 | 299 | 19.3 | 25.7 | 0.00 | 0.00 | 0.00 | 36 | 1014.7 |
| 20260503202143 | 14 | 233 | 12.9 | 16.1 | 0.00 | 0.00 | 0.00 | 36 | 1014.8 |
| 20260503201641 | 15 | 284 | 12.9 | 27.4 | 0.00 | 0.00 | 0.00 | 38 | 1014.8 |
| 20260503201138 | 15 | 342 | 12.9 | 20.9 | 0.00 | 0.00 | 0.00 | 37 | 1014.7 |
| 20260503200633 | 15 | 4 | 9.7 | 24.1 | 0.00 | 0.00 | 0.00 | 37 | 1014.9 |
| 20260503200130 | 15 | 315 | 8.0 | 12.9 | 0.00 | 0.00 | 0.00 | 38 | 1014.9 |
| 20260503195627 | 15 | 307 | 17.7 | 24.1 | 0.00 | 0.00 | 0.00 | 38 | 1014.9 |
| 20260503195124 | 14 | 313 | 11.3 | 20.9 | 0.00 | 0.00 | 0.00 | 38 | 1015.2 |
| 20260503194621 | 15 | 250 | 6.4 | 11.3 | 0.00 | 0.00 | 0.00 | 41 | 1015.1 |
| 20260503194116 | 14 | 322 | 4.8 | 17.7 | 0.00 | 0.00 | 0.00 | 42 | 1015.2 |
| 20260503193613 | 15 | 352 | 11.3 | 22.5 | 0.00 | 0.00 | 0.00 | 36 | 1015.5 |
| 20260503193109 | 15 | 307 | 12.9 | 20.9 | 0.00 | 0.00 | 0.00 | 35 | 1015.4 |
| 20260503192605 | 15 | 318 | 12.9 | 16.1 | 0.00 | 0.00 | 0.00 | 40 | 1015.5 |
| 20260503192101 | 14 | 325 | 12.9 | 20.9 | 0.00 | 0.00 | 0.00 | 38 | 1015.4 |
| 20260503191557 | 14 | 302 | 12.9 | 24.1 | 0.00 | 0.00 | 0.00 | 39 | 1015.7 |
| 20260503191054 | 15 | 355 | 8.0 | 22.5 | 0.00 | 0.00 | 0.00 | 38 | 1015.7 |
| 20260503190551 | 13 | 336 | 6.4 | 11.3 | 0.00 | 0.00 | 0.00 | 37 | 1015.7 |
| 20260503190048 | 13 | 354 | 11.3 | 22.5 | 0.00 | 0.00 | 0.00 | 37 | 1015.8 |
| 20260503185539 | 14 | 291 | 14.5 | 17.7 | 0.00 | 0.00 | 0.00 | 36 | 1015.7 |
| 20260503185038 | 14 | 284 | 11.3 | 17.7 | 0.00 | 0.00 | 0.00 | 38 | 1016.2 |
| 20260503184535 | 13 | 316 | 9.7 | 24.1 | 0.00 | 0.00 | 0.00 | 38 | 1015.8 |
| 20260503184032 | 13 | 323 | 14.5 | 17.7 | 0.00 | 0.00 | 0.00 | 38 | 1015.8 |
| 20260503183528 | 13 | 221 | 17.7 | 40.2 | 0.00 | 0.00 | 0.00 | 38 | 1016.3 |
| 20260503183025 | 13 | 312 | 14.5 | 22.5 | 0.00 | 0.00 | 0.00 | 40 | 1016.2 |
| 20260503182524 | 13 | 301 | 20.9 | 25.7 | 0.00 | 0.00 | 0.00 | 39 | 1016.1 |
| 20260503182021 | 13 | 294 | 16.1 | 29.0 | 0.00 | 0.00 | 0.00 | 42 | 1016.0 |
| 20260503181518 | 12 | 263 | 9.7 | 12.9 | 0.00 | 0.00 | 0.00 | 41 | 1016.4 |
| 20260503181014 | 12 | 228 | 12.9 | 16.1 | 0.00 | 0.00 | 0.00 | 41 | 1016.3 |
| 20260503180512 | 13 | 327 | 12.9 | 24.1 | 0.00 | 0.00 | 0.00 | 38 | 1016.3 |
| 20260503180009 | 13 | 271 | 8.0 | 11.3 | 0.00 | 0.00 | 0.00 | 39 | 1016.3 |
| 20260503175507 | 12 | 302 | 17.7 | 24.1 | 0.00 | 0.00 | 0.00 | 39 | 1016.5 |
| 20260503175003 | 12 | 325 | 11.3 | 12.9 | 0.00 | 0.00 | 0.00 | 41 | 1016.4 |
| 20260503174500 | 13 | 340 | 6.4 | 20.9 | 0.00 | 0.00 | 0.00 | 40 | 1016.5 |
| 20260503173955 | 12 | 310 | 11.3 | 16.1 | 0.00 | 0.00 | 0.00 | 42 | 1016.3 |
| 20260503173451 | 13 | 353 | 20.9 | 29.0 | 0.00 | 0.00 | 0.00 | 39 | 1016.3 |
| 20260503172949 | 12 | 16 | 16.1 | 25.7 | 0.00 | 0.00 | 0.00 | 42 | 1016.6 |
| 20260503172446 | 12 | 297 | 6.4 | 32.2 | 0.00 | 0.00 | 0.00 | 45 | 1016.4 |
| 20260503171943 | 12 | 296 | 3.2 | 17.7 | 0.00 | 0.00 | 0.00 | 42 | 1016.7 |
| 20260503171439 | 12 | 313 | 11.3 | 22.5 | 0.00 | 0.00 | 0.00 | 42 | 1016.7 |
| 20260503170937 | 12 | 282 | 16.1 | 24.1 | 0.00 | 0.00 | 0.00 | 42 | 1016.5 |
| 20260503170433 | 12 | 294 | 9.7 | 24.1 | 0.00 | 0.00 | 0.00 | 43 | 1016.9 |
| 20260503150825 | 10 | 246 | 11.3 | 12.9 | 0.00 | 0.00 | 0.00 | 45 | 1017.7 |
| 20260503150321 | 10 | 286 | 17.7 | 29.0 | 0.00 | 0.00 | 0.00 | 43 | 1017.5 |
| 20260503140246 | 8 | 296 | 6.4 | 24.1 | 0.00 | 0.00 | 0.00 | 52 | 1017.8 |
| 20260503131215 | 7 | 314 | 16.1 | 20.9 | 0.00 | 0.00 | 0.00 | 59 | 1018.2 |
| 20260503130713 | 7 | 40 | 6.4 | 11.3 | 0.00 | 0.00 | 0.00 | 57 | 1018.0 |
| 20260503130210 | 7 | 353 | 6.4 | 17.7 | 0.00 | 0.00 | 0.00 | 60 | 1017.9 |
| 20260503120136 | 6 | 312 | 11.3 | 14.5 | 0.00 | 0.00 | 0.00 | 64 | 1017.8 |
| 20260503110603 | 5 | 317 | 4.8 | 9.7 | 0.00 | 0.00 | 0.00 | 67 | 1017.2 |